Gilze-Rijen, Netherlands

9:55 AM CEST on May 27, 2017 (GMT +0200)
Gilze-Rijen Air Base

Weather History for EHGR - March, 2013

Change the Weather History Date:

Monday, March 18, 2013

  Actual Average Record
Temperature  
Mean Temperature 42 °F -  
Max Temperature 50 °F 53 °F 59 °F (2004)
Min Temperature 33 °F 37 °F 28 °F (2006)
Degree Days  
Heating Degree Days 24    
Moisture  
Dew Point 35 °F    
Average Humidity 78    
Maximum Humidity 93    
Minimum Humidity 50    
Precipitation  
Precipitation 0.00 in - - ()
Sea Level Pressure  
Sea Level Pressure 29.29 in    
Wind  
Wind Speed 9 mph ()    
Max Wind Speed 15 mph    
Max Gust Speed -    
Visibility 6.1 miles    
Events Rain    
Averages and records for this station are not official NWS values.
T = Trace of Precipitation, MM = Missing Value Source: Averaged Metar Reports

Daily Weather History Graph

Daily Weather History Graph

Search for Another Location

Airport or City:

Trip Planner

Search our weather history database for the weather conditions in past years. The results will help you decide how hot, cold, wet, or windy it might be!

Date:

Astronomy

Mar. 18, 2013 Rise Set
Actual Time 6:47 AM CET 6:50 PM CET
Civil Twilight 6:14 AM CET 7:23 PM CET
Nautical Twilight 5:34 AM CET 8:02 PM CET
Astronomical Twilight 4:54 AM CET 8:43 PM CET
Moon 9:54 AM CET (3/18) 1:15 AM CET (3/18)
Length of Visible Light 13h 09m
Length of Day
12h 02m
Waxing Crescent, 38% of the Moon is Illuminated
Mar 18
Waxing Crescent
Mar 19
First Quarter
Mar 27
Full
Apr 3
Last Quarter
Apr 10
New

Hourly Weather History & Observations

Time (CET) Temp. Windchill Dew Point Humidity Pressure Visibility Wind Dir Wind Speed Gust Speed Precip Events Conditions
12:15 AM 41.0 °F 35.2 °F 39.2 °F 93% 29.27 in 4.3 mi SE 9.2 mph - N/A   Overcast
12:25 AM 41.0 °F 34.7 °F 39.2 °F 93% 29.27 in 5.0 mi SSE 10.4 mph - N/A   Overcast
12:26 AM 41.0 °F 34.7 °F 39.2 °F 93% 29.27 in 5.6 mi SSE 10.4 mph - N/A   Overcast
12:42 AM 41.0 °F 35.8 °F 39.2 °F 93% 29.27 in 6.2 mi SSE 8.1 mph - N/A   Light Drizzle
12:55 AM 41.0 °F 34.7 °F 39.2 °F 93% 29.27 in 6.2 mi South 10.4 mph - N/A   Overcast
12:59 AM 41.0 °F 33.9 °F 39.2 °F 93% 29.27 in 6.2 mi South 12.7 mph - N/A Rain Light Rain
1:25 AM 41.0 °F 33.9 °F 39.2 °F 93% 29.27 in 6.2 mi South 12.7 mph - N/A   Mostly Cloudy
1:35 AM 41.0 °F 34.3 °F 37.4 °F 87% 29.27 in 6.2 mi South 11.5 mph - N/A   Mostly Cloudy
1:39 AM 41.0 °F 33.9 °F 37.4 °F 87% 29.27 in 6.2 mi South 12.7 mph - N/A   Mostly Cloudy
1:55 AM 41.0 °F 33.9 °F 37.4 °F 87% 29.27 in 6.2 mi South 12.7 mph - N/A   Overcast
2:25 AM 41.0 °F 34.3 °F 37.4 °F 87% 29.27 in 6.2 mi South 11.5 mph - N/A   Overcast
2:43 AM 41.0 °F 33.9 °F 35.6 °F 81% 29.27 in 6.2 mi SSW 12.7 mph - N/A   Overcast
2:55 AM 41.0 °F 34.3 °F 35.6 °F 81% 29.27 in 6.2 mi SSW 11.5 mph - N/A   Overcast
3:01 AM 41.0 °F 33.9 °F 35.6 °F 81% 29.27 in 6.2 mi South 12.7 mph - N/A   Overcast
3:25 AM 41.0 °F 33.1 °F 35.6 °F 81% 29.27 in 6.2 mi SSW 15.0 mph - N/A   Overcast
3:50 AM 41.0 °F 33.5 °F 35.6 °F 81% 29.27 in 4.3 mi SSW 13.8 mph - N/A   Overcast
3:55 AM 41.0 °F 33.1 °F 35.6 °F 81% 29.27 in 6.2 mi SSW 15.0 mph - N/A Rain Light Rain
4:08 AM 41.0 °F 33.9 °F 35.6 °F 81% 29.27 in 6.2 mi SSW 12.7 mph - N/A Rain Light Rain
4:25 AM 39.2 °F 31.2 °F 35.6 °F 87% 29.27 in 6.2 mi SSW 13.8 mph - N/A   Light Drizzle
4:55 AM 39.2 °F 31.6 °F 35.6 °F 87% 29.27 in 6.2 mi SSW 12.7 mph - N/A   Overcast
5:25 AM 39.2 °F 32.5 °F 33.8 °F 81% 29.27 in 6.2 mi SSW 10.4 mph - N/A   Overcast
5:55 AM 39.2 °F 32.0 °F 33.8 °F 81% 29.27 in 6.2 mi SW 11.5 mph - N/A   Overcast
6:25 AM 39.2 °F 31.6 °F 33.8 °F 81% 29.30 in 6.2 mi SSW 12.7 mph - N/A   Overcast
6:38 AM 37.4 °F 29.8 °F 33.8 °F 87% 29.30 in 6.2 mi SSW 11.5 mph - N/A   Partly Cloudy
6:55 AM 37.4 °F 29.3 °F 32.0 °F 81% 29.30 in 6.2 mi SSW 12.7 mph - N/A   Unknown
7:25 AM 37.4 °F 29.8 °F 32.0 °F 81% 29.30 in 6.2 mi SSW 11.5 mph - N/A   Unknown
7:55 AM 37.4 °F 30.3 °F 33.8 °F 87% 29.30 in 6.2 mi South 10.4 mph - N/A   Unknown
8:25 AM 39.2 °F 32.5 °F 33.8 °F 81% 29.33 in 6.2 mi South 10.4 mph - N/A   Partly Cloudy
8:31 AM 39.2 °F 33.0 °F 33.8 °F 81% 29.33 in 6.2 mi SSW 9.2 mph - N/A   Partly Cloudy
8:55 AM 39.2 °F 32.0 °F 33.8 °F 81% 29.33 in 6.2 mi South 11.5 mph - N/A   Unknown
9:25 AM 41.0 °F 34.7 °F 33.8 °F 76% 29.33 in 6.2 mi South 10.4 mph - N/A   Partly Cloudy
9:55 AM 42.8 °F 36.6 °F 33.8 °F 70% 29.33 in 6.2 mi SSW 11.5 mph - N/A   Mostly Cloudy
10:25 AM 44.6 °F 39.2 °F 35.6 °F 71% 29.30 in 6.2 mi SSW 10.4 mph - N/A   Partly Cloudy
10:55 AM 46.4 °F 41.1 °F 35.6 °F 66% 29.30 in 6.2 mi SSW 11.5 mph - N/A   Scattered Clouds
12:55 PM 50.0 °F - 33.8 °F 54% 29.30 in 6.2 mi SSW 13.8 mph - N/A   Scattered Clouds
1:25 PM 50.0 °F - 33.8 °F 54% 29.30 in 6.2 mi SSW 10.4 mph - N/A   Mostly Cloudy
1:55 PM 50.0 °F - 32.0 °F 50% 29.30 in 6.2 mi SW 8.1 mph - N/A   Mostly Cloudy
2:25 PM 50.0 °F - 32.0 °F 50% 29.30 in 6.2 mi WSW 5.8 mph - N/A   Mostly Cloudy
2:55 PM 50.0 °F - 33.8 °F 54% 29.30 in 6.2 mi SSW 5.8 mph - N/A   Overcast
3:25 PM 50.0 °F - 32.0 °F 50% 29.30 in 6.2 mi ENE 2.3 mph - N/A   Overcast
3:55 PM 50.0 °F - 32.0 °F 50% 29.30 in 6.2 mi SSE 3.5 mph - N/A   Mostly Cloudy
4:25 PM 48.2 °F - 37.4 °F 66% 29.30 in 6.2 mi North 5.8 mph - N/A   Scattered Clouds
4:55 PM 48.2 °F - 35.6 °F 62% 29.30 in 6.2 mi NNE 5.8 mph - N/A   Mostly Cloudy
5:25 PM 48.2 °F - 37.4 °F 66% 29.30 in 6.2 mi NNE 5.8 mph - N/A   Scattered Clouds
5:49 PM 46.4 °F 43.5 °F 37.4 °F 71% 29.30 in 6.2 mi NNE 5.8 mph - N/A   Overcast
5:55 PM 46.4 °F 43.5 °F 37.4 °F 71% 29.30 in 6.2 mi NNE 5.8 mph - N/A   Overcast
6:25 PM 44.6 °F 42.2 °F 37.4 °F 76% 29.30 in 6.2 mi NNE 4.6 mph - N/A   Partly Cloudy
6:55 PM 42.8 °F 40.1 °F 35.6 °F 76% 29.30 in 6.2 mi NNE 4.6 mph - N/A   Scattered Clouds
7:25 PM 41.0 °F 38.0 °F 35.6 °F 81% 29.30 in 6.2 mi NNE 4.6 mph - N/A   Partly Cloudy
7:55 PM 41.0 °F 38.0 °F 35.6 °F 81% 29.30 in 6.2 mi NNE 4.6 mph - N/A   Mostly Cloudy
8:25 PM 41.0 °F 36.4 °F 35.6 °F 81% 29.30 in 6.2 mi NNE 6.9 mph - N/A   Mostly Cloudy
8:35 PM 42.8 °F 38.6 °F 37.4 °F 81% 29.30 in 6.2 mi NNE 6.9 mph - N/A   Partly Cloudy
8:55 PM 37.4 °F 32.8 °F 32.0 °F 81% 29.30 in 6.2 mi NNE 5.8 mph - N/A   Partly Cloudy
9:25 PM 39.2 °F - 35.6 °F 87% 29.30 in 6.2 mi ENE 2.3 mph - N/A   Unknown
9:55 PM 33.8 °F 30.8 °F 30.2 °F 87% 29.33 in 6.2 mi East 3.5 mph - N/A   Unknown
10:25 PM 39.2 °F 35.0 °F 33.8 °F 81% 29.33 in 6.2 mi SSE 5.8 mph - N/A   Unknown
10:36 PM 39.2 °F 33.6 °F 33.8 °F 81% 29.33 in 6.2 mi SSE 8.1 mph - N/A   Unknown
10:55 PM 37.4 °F 32.8 °F 32.0 °F 81% 29.33 in 6.2 mi South 5.8 mph - N/A   Unknown
11:25 PM 39.2 °F 35.9 °F 32.0 °F 75% 29.33 in 6.2 mi South 4.6 mph - N/A   Partly Cloudy
11:55 PM 35.6 °F - 30.2 °F 81% 29.33 in 6.2 mi East 1.2 mph - N/A   Overcast